Preston, MN

1:38 AM CDT on August 23, 2017 (GMT -0500)
Preston

Weather History for KFKA - January, 2013

Change the Weather History Date:

Friday, January 25, 2013

  Actual Average (KRST) Record (KRST)
Temperature  
Mean Temperature 14 °F -  
Max Temperature 22 °F 20 °F 58 °F (1944)
Min Temperature 5 °F 4 °F -23 °F (1936)
Degree Days  
Heating Degree Days 52    
Moisture  
Dew Point 7 °F    
Average Humidity 73    
Maximum Humidity 86    
Minimum Humidity 55    
Precipitation  
Precipitation 0.00 in - - ()
Sea Level Pressure  
Sea Level Pressure 30.06 in    
Wind  
Wind Speed 13 mph (West)    
Max Wind Speed 29 mph    
Max Gust Speed 34 mph    
Visibility 9 miles    
Events Snow    
Averages and records for this station are not official NWS values.
T = Trace of Precipitation, MM = Missing Value Source: NWS Daily Summary

Daily Weather History Graph

Daily Weather History Graph

Search for Another Location

Airport or City:

Trip Planner

Search our weather history database for the weather conditions in past years. The results will help you decide how hot, cold, wet, or windy it might be!

Date:

Astronomy

Jan. 25, 2013 Rise Set
Actual Time 7:32 AM CST 5:10 PM CST
Civil Twilight 7:00 AM CST 5:41 PM CST
Nautical Twilight 6:26 AM CST 6:16 PM CST
Astronomical Twilight 5:52 AM CST 6:50 PM CST
Moon 4:08 PM CST (1/25) 6:12 AM CST (1/25)
Length of Visible Light 10h 40m
Length of Day
9h 38m
Waxing Gibbous, 98% of the Moon is Illuminated
Jan 25
Waxing Gibbous
Jan 26
Full
Feb 3
Last Quarter
Feb 10
New
Feb 17
First Quarter

Hourly Weather History & Observations

Time (CST) Temp. Windchill Dew Point Humidity Pressure Visibility Wind Dir Wind Speed Gust Speed Precip Events Conditions
12:10 AM 13.5 °F 1.3 °F 4.3 °F 67% 30.18 in 10.0 mi SSE 9.2 mph - N/A   Overcast
12:29 AM 13.5 °F 1.3 °F 4.5 °F 67% 30.17 in 10.0 mi South 9.2 mph - N/A   Overcast
12:50 AM 13.6 °F 1.6 °F 5.0 °F 68% 30.14 in 10.0 mi SSE 9.2 mph - N/A   Overcast
1:10 AM 13.8 °F 1.0 °F 5.4 °F 69% 30.12 in 10.0 mi SSE 10.4 mph - N/A   Overcast
1:49 AM 14.2 °F 3.1 °F 7.3 °F 74% 30.13 in 5.0 mi South 8.1 mph - N/A Snow Light Snow
2:10 AM 14.4 °F 2.4 °F 8.8 °F 79% 30.12 in 7.0 mi South 9.2 mph - N/A Snow Light Snow
2:50 AM 15.1 °F 2.5 °F 10.9 °F 84% 30.10 in 7.0 mi SSW 10.4 mph - N/A Snow Light Snow
3:10 AM 14.9 °F 0.3 °F 11.5 °F 86% 30.07 in 4.0 mi South 13.8 mph - N/A Snow Light Snow
3:30 AM 15.3 °F 2.8 °F 11.3 °F 84% 30.07 in 10.0 mi SSW 10.4 mph - N/A   Overcast
3:49 AM 15.4 °F 1.6 °F 11.3 °F 84% 30.06 in 10.0 mi SSW 12.7 mph - N/A   Overcast
4:10 AM 15.4 °F 5.6 °F 11.1 °F 83% 30.05 in 10.0 mi SSW 6.9 mph 10.4 mph N/A   Overcast
4:49 AM 15.4 °F 1.6 °F 11.1 °F 83% 30.03 in 10.0 mi SSW 12.7 mph 17.3 mph N/A   Overcast
5:09 AM 15.4 °F 2.3 °F 11.1 °F 83% 30.02 in 10.0 mi SSW 11.5 mph - N/A   Overcast
5:29 AM 15.6 °F 2.5 °F 10.9 °F 82% 30.01 in 10.0 mi SSW 11.5 mph - N/A   Overcast
5:49 AM 14.9 °F 3.1 °F 10.2 °F 82% 30.00 in 10.0 mi SW 9.2 mph - N/A   Scattered Clouds
6:09 AM 14.7 °F 3.8 °F 9.5 °F 80% 30.00 in 10.0 mi SSW 8.1 mph - N/A   Clear
6:29 AM 14.4 °F 2.4 °F 9.0 °F 79% 29.99 in 10.0 mi SSW 9.2 mph - N/A   Clear
6:50 AM 13.8 °F -0.5 °F 8.6 °F 80% 29.98 in 10.0 mi SSW 12.7 mph - N/A   Clear
7:10 AM 13.5 °F 0.5 °F 8.4 °F 80% 29.98 in 10.0 mi SSW 10.4 mph - N/A   Clear
7:30 AM 13.3 °F -0.5 °F 7.7 °F 78% 29.97 in 10.0 mi SW 11.5 mph 16.1 mph N/A   Clear
7:49 AM 13.5 °F -0.9 °F 6.8 °F 75% 29.97 in 10.0 mi SW 12.7 mph 17.3 mph N/A   Clear
8:10 AM 13.8 °F 2.7 °F 6.6 °F 73% 29.97 in 10.0 mi SW 8.1 mph 16.1 mph N/A   Clear
8:30 AM 14.7 °F 1.4 °F 6.6 °F 70% 29.97 in 10.0 mi SW 11.5 mph 16.1 mph N/A   Clear
8:50 AM 15.6 °F -0.4 °F 6.8 °F 68% 29.97 in 10.0 mi WSW 17.3 mph - N/A   Clear
9:10 AM 16.3 °F 2.7 °F 7.7 °F 69% 29.96 in 10.0 mi WSW 12.7 mph 17.3 mph N/A   Mostly Cloudy
9:30 AM 16.5 °F 3.6 °F 8.8 °F 72% 29.97 in 10.0 mi West 11.5 mph 18.4 mph N/A   Overcast
9:50 AM 16.2 °F 3.2 °F 9.3 °F 74% 29.96 in 10.0 mi West 11.5 mph - N/A   Overcast
10:10 AM 16.7 °F 2.0 °F 10.9 °F 78% 29.97 in 10.0 mi West 15.0 mph 20.7 mph N/A   Overcast
10:29 AM 17.4 °F 4.7 °F 11.8 °F 79% 29.97 in 5.0 mi West 11.5 mph - N/A Snow Light Snow
10:50 AM 18.1 °F 5.0 °F 12.7 °F 79% 29.96 in 5.0 mi West 12.7 mph 17.3 mph N/A Snow Light Snow
11:10 AM 20.3 °F 7.2 °F 14.7 °F 79% 29.94 in 7.0 mi West 13.8 mph 19.6 mph N/A Snow Light Snow
11:29 AM 21.0 °F 6.6 °F 14.9 °F 77% 29.94 in 7.0 mi WNW 17.3 mph 24.2 mph N/A Snow Light Snow
11:50 AM 21.9 °F 5.1 °F 14.5 °F 73% 29.94 in 7.0 mi WNW 25.3 mph 33.4 mph N/A Snow Light Snow
12:09 PM 22.1 °F 5.4 °F 14.2 °F 72% 29.94 in 4.0 mi WNW 25.3 mph 32.2 mph N/A Snow Light Snow
12:30 PM 20.8 °F 2.8 °F 11.7 °F 68% 29.94 in 4.0 mi WNW 28.8 mph 34.5 mph N/A Snow Light Snow
12:49 PM 21.9 °F 5.5 °F 9.1 °F 58% 29.95 in 10.0 mi NW 24.2 mph 33.4 mph N/A   Scattered Clouds
1:10 PM 21.2 °F 4.2 °F 7.5 °F 56% 29.96 in 10.0 mi NW 25.3 mph 31.1 mph N/A   Clear
1:30 PM 21.2 °F 5.2 °F 7.5 °F 56% 29.97 in 10.0 mi WNW 21.9 mph 28.8 mph N/A   Clear
1:50 PM 21.2 °F 5.6 °F 7.7 °F 56% 29.98 in 10.0 mi WNW 20.7 mph 26.5 mph N/A   Clear
2:09 PM 20.7 °F 5.7 °F 6.8 °F 55% 29.98 in 10.0 mi NW 18.4 mph 33.4 mph N/A   Clear
2:30 PM 20.5 °F 3.2 °F 7.3 °F 57% 29.99 in 10.0 mi WNW 25.3 mph 28.8 mph N/A   Clear
2:50 PM 19.4 °F 3.6 °F 7.0 °F 59% 30.00 in 10.0 mi NW 19.6 mph 27.6 mph N/A   Clear
3:10 PM 18.9 °F 3.3 °F 6.4 °F 58% 30.01 in 10.0 mi NW 18.4 mph 28.8 mph N/A   Scattered Clouds
3:50 PM 17.4 °F 1.5 °F 5.2 °F 59% 30.03 in 10.0 mi NW 18.4 mph 23.0 mph N/A   Clear
4:10 PM 16.5 °F 0.3 °F 5.0 °F 61% 30.04 in 10.0 mi NW 18.4 mph 25.3 mph N/A   Clear
4:50 PM 14.7 °F -2.9 °F 4.6 °F 64% 30.06 in 10.0 mi NW 20.7 mph 25.3 mph N/A   Clear
5:10 PM 14.0 °F -0.8 °F 4.1 °F 65% 30.07 in 10.0 mi NW 13.8 mph 18.4 mph N/A   Clear
5:29 PM 13.1 °F -3.1 °F 4.1 °F 67% 30.07 in 10.0 mi NW 16.1 mph - N/A   Clear
5:49 PM 12.4 °F -3.5 °F 3.7 °F 68% 30.09 in 10.0 mi NW 15.0 mph 20.7 mph N/A   Clear
6:09 PM 11.8 °F -4.2 °F 3.6 °F 69% 30.10 in 10.0 mi NW 15.0 mph - N/A   Clear
6:29 PM 11.3 °F -2.2 °F 3.4 °F 70% 30.12 in 10.0 mi NW 10.4 mph - N/A   Clear
6:50 PM 10.8 °F -2.0 °F 3.2 °F 72% 30.13 in 10.0 mi NW 9.2 mph - N/A   Clear
7:09 PM 10.4 °F -2.4 °F 3.2 °F 73% 30.13 in 10.0 mi NW 9.2 mph - N/A   Clear
7:50 PM 9.5 °F -5.9 °F 2.7 °F 74% 30.15 in 10.0 mi NW 12.7 mph 18.4 mph N/A   Clear
8:09 PM 9.1 °F -7.0 °F 2.3 °F 74% 30.16 in 10.0 mi NW 13.8 mph - N/A   Clear
8:30 PM 8.6 °F -7.7 °F 2.1 °F 75% 30.17 in 10.0 mi NW 13.8 mph 18.4 mph N/A   Clear
8:49 PM 8.2 °F -6.8 °F 1.9 °F 76% 30.18 in 10.0 mi NW 11.5 mph - N/A   Clear
9:10 PM 7.7 °F -8.9 °F 1.6 °F 76% 30.18 in 10.0 mi NW 13.8 mph - N/A   Clear
9:29 PM 7.3 °F -8.6 °F 1.4 °F 77% 30.19 in 10.0 mi NW 12.7 mph - N/A   Clear
9:49 PM 6.8 °F -10.0 °F 1.2 °F 78% 30.20 in 10.0 mi NW 13.8 mph - N/A   Clear
10:10 PM 6.6 °F -8.0 °F 1.0 °F 78% 30.20 in 10.0 mi NW 10.4 mph - N/A   Clear
10:50 PM 5.7 °F -9.1 °F 0.3 °F 78% 30.22 in 10.0 mi NW 10.4 mph - N/A   Clear
11:09 PM 5.4 °F -10.4 °F 0.1 °F 79% 30.23 in 10.0 mi NW 11.5 mph - N/A   Clear
11:30 PM 5.0 °F -10.0 °F -0.2 °F 79% 30.24 in 10.0 mi NW 10.4 mph - N/A   Clear
11:50 PM 5.0 °F -8.1 °F -0.4 °F 78% 30.23 in 10.0 mi NW 8.1 mph - N/A   Clear